Weather History for Crosby, ND

Change the Weather History Date:

Wednesday, March 6, 2013

  Actual Average (KISN) Record (KISN)
Temperature  
Mean Temperature 8 °F 24 °F  
Max Temperature 17 °F 35 °F 69 °F (1987)
Min Temperature -2 °F 14 °F -24 °F (1996)
Degree Days  
Heating Degree Days 58 41  
Month to date heating degree days 250  
Since 1 July heating degree days 7018  
Cooling Degree Days 0 0  
Month to date cooling degree days 0  
Year to date cooling degree days 0  
Moisture  
Dew Point 5 °F    
Average Humidity 84    
Maximum Humidity 92    
Minimum Humidity 78    
Precipitation  
Precipitation 0.00 in 0.02 in 0.69 in (1983)
Month to date precipitation 0.12  
Year to date precipitation 1.10  
Snow  
Snow 0.00 in 0.30 in 6.10 in (1983)
Month to date snowfall 1.5  
Since 1 July snowfall 35.6  
Snow Depth -    
Sea Level Pressure  
Sea Level Pressure 30.17 in    
Wind  
Wind Speed 8 mph (ESE)    
Max Wind Speed 17 mph    
Max Gust Speed -    
Visibility 9 miles    
Events Snow    
T = Trace of Precipitation, MM = Missing Value Source: NWS Daily Summary

Daily Weather History Graph

Daily Weather History Graph

Search for Another Location

Airport:

Trip Planner

Search our weather history database for the weather conditions in past years. The results will help you decide how hot, cold, wet, or windy it might be!

Date:

Astronomy

Mar. 06, 2013 Rise Set
Actual Time 7:24 AM CST 6:45 PM CST
Civil Twilight 6:52 AM CST 7:16 PM CST
Nautical Twilight 6:16 AM CST 7:53 PM CST
Astronomical Twilight 5:39 AM CST 8:30 PM CST
Moon 3:57 AM CST (3/6) 1:08 PM CST (3/6)
Length of Visible Light 12h 23m
Length of Day
11h 20m
Waning Crescent, 29% of the Moon is Illuminated
Mar 6
Waning Crescent
Mar 11
New
Mar 19
First Quarter
Mar 27
Full
Apr 2
Last Quarter

Hourly Weather History & Observations

Time (CST) Temp. Windchill Dew Point Humidity Pressure Visibility Wind Dir Wind Speed Gust Speed Precip Events Conditions
12:15 AM -2.2 °F -15.6 °F -7.6 °F 78% 30.32 in 10.0 mi South 6.9 mph - N/A   Overcast
12:35 AM -2.2 °F -12.5 °F -7.6 °F 78% 30.31 in - South 4.6 mph - N/A Snow Heavy Snow
12:55 AM -2.2 °F -15.6 °F -5.8 °F 85% 30.31 in 10.0 mi South 6.9 mph - N/A   Scattered Clouds
1:15 AM -2.2 °F -14.2 °F -7.6 °F 78% 30.31 in 10.0 mi South 5.8 mph - N/A   Mostly Cloudy
1:35 AM -2.2 °F -10.4 °F -5.8 °F 85% 30.31 in 10.0 mi SSW 3.5 mph - N/A   Overcast
1:55 AM -2.2 °F -10.4 °F -7.6 °F 78% 30.30 in 10.0 mi SSW 3.5 mph - N/A   Overcast
2:15 AM -0.4 °F - -4.0 °F 85% 30.30 in 10.0 mi Calm Calm - N/A   Overcast
2:35 AM -0.4 °F - -2.2 °F 92% 30.30 in 10.0 mi Calm Calm - N/A   Overcast
2:55 AM 1.4 °F -6.2 °F -0.4 °F 92% 30.30 in 10.0 mi East 3.5 mph - N/A Snow Light Snow
3:15 AM 3.2 °F -4.2 °F -0.4 °F 85% 30.30 in 10.0 mi ENE 3.5 mph - N/A Snow Light Snow
3:35 AM 5.0 °F -2.1 °F -0.4 °F 78% 30.29 in 10.0 mi East 3.5 mph - N/A   Overcast
3:55 AM 3.2 °F -6.2 °F -0.4 °F 85% 30.29 in 10.0 mi East 4.6 mph - N/A   Overcast
4:15 AM 6.8 °F -4.8 °F 3.2 °F 85% 30.28 in 10.0 mi ESE 6.9 mph - N/A   Overcast
4:35 AM 8.6 °F -2.6 °F 6.8 °F 92% 30.27 in 10.0 mi ESE 6.9 mph - N/A Snow Light Snow
4:55 AM 12.2 °F 0.7 °F 8.6 °F 85% 30.27 in 10.0 mi SSE 8.1 mph - N/A Snow Light Snow
5:15 AM 12.2 °F 0.7 °F 10.4 °F 92% 30.27 in 9.0 mi SE 8.1 mph - N/A Snow Light Snow
5:35 AM 12.2 °F -1.0 °F 10.4 °F 92% 30.27 in 8.0 mi SE 10.4 mph - N/A Snow Light Snow
6:15 AM 10.4 °F -3.3 °F 8.6 °F 92% 30.26 in 10.0 mi SE 10.4 mph - N/A   Overcast
6:35 AM 10.4 °F -3.3 °F 8.6 °F 92% 30.26 in 10.0 mi SE 10.4 mph - N/A   Overcast
6:55 AM 10.4 °F -3.3 °F 8.6 °F 92% 30.25 in 10.0 mi SE 10.4 mph - N/A Snow Light Snow
7:15 AM 8.6 °F -4.7 °F 6.8 °F 92% 30.25 in 10.0 mi ESE 9.2 mph - N/A   Overcast
7:35 AM 8.6 °F -4.7 °F 6.8 °F 92% 30.25 in 10.0 mi SE 9.2 mph - N/A   Overcast
7:55 AM 8.6 °F -2.6 °F 5.0 °F 85% 30.25 in 7.0 mi SE 6.9 mph - N/A Snow Light Snow
8:15 AM 8.6 °F -2.6 °F 5.0 °F 85% 30.24 in 4.0 mi SE 6.9 mph - N/A Snow Light Snow
8:35 AM 5.0 °F -5.6 °F 1.4 °F 85% 30.24 in 5.0 mi ESE 5.8 mph - N/A   Overcast
8:55 AM 5.0 °F -5.6 °F -0.4 °F 78% 30.24 in 8.0 mi East 5.8 mph - N/A   Scattered Clouds
9:15 AM 3.2 °F -10.3 °F -0.4 °F 85% 30.23 in 8.0 mi East 8.1 mph - N/A   Clear
9:35 AM 5.0 °F -10.0 °F 1.4 °F 85% 30.22 in 8.0 mi East 10.4 mph - N/A   Clear
9:55 AM 6.8 °F -6.9 °F 1.4 °F 79% 30.22 in 9.0 mi ESE 9.2 mph - N/A   Clear
10:15 AM 6.8 °F -6.9 °F 3.2 °F 85% 30.21 in 9.0 mi ESE 9.2 mph - N/A   Clear
10:35 AM 8.6 °F -3.7 °F 5.0 °F 85% 30.21 in 9.0 mi East 8.1 mph - N/A   Clear
10:55 AM 8.6 °F -4.7 °F 3.2 °F 79% 30.20 in 9.0 mi East 9.2 mph - N/A   Clear
11:15 AM 8.6 °F -5.5 °F 5.0 °F 85% 30.20 in 10.0 mi East 10.4 mph - N/A   Clear
11:35 AM 8.6 °F -3.7 °F 5.0 °F 85% 30.19 in 9.0 mi East 8.1 mph - N/A   Clear
11:55 AM 12.2 °F 0.7 °F 8.6 °F 85% 30.18 in 10.0 mi East 8.1 mph - N/A   Clear
12:15 PM 14.0 °F 0.5 °F 10.4 °F 86% 30.17 in 10.0 mi ESE 11.5 mph - N/A   Clear
12:35 PM 15.8 °F 4.2 °F 10.4 °F 79% 30.16 in 10.0 mi ESE 9.2 mph - N/A   Clear
12:55 PM 15.8 °F 1.4 °F 10.4 °F 79% 30.15 in 5.0 mi ESE 13.8 mph - N/A   Haze
1:15 PM 15.8 °F 1.4 °F 10.4 °F 79% 30.14 in 5.0 mi ESE 13.8 mph - N/A   Haze
1:35 PM 15.8 °F 0.9 °F 10.4 °F 79% 30.13 in 8.0 mi ESE 15.0 mph - N/A   Clear
1:55 PM 15.8 °F 2.1 °F 10.4 °F 79% 30.12 in 10.0 mi ESE 12.7 mph - N/A   Clear
2:15 PM 15.8 °F 2.7 °F 10.4 °F 79% 30.12 in 10.0 mi ESE 11.5 mph - N/A   Clear
2:35 PM 17.6 °F 5.0 °F 12.2 °F 79% 30.11 in 10.0 mi ESE 11.5 mph - N/A   Clear
2:55 PM 17.6 °F 4.3 °F 12.2 °F 79% 30.10 in 10.0 mi ESE 12.7 mph - N/A   Clear
3:15 PM 17.6 °F 3.2 °F 12.2 °F 79% 30.10 in 10.0 mi SE 15.0 mph - N/A   Clear
3:35 PM 17.6 °F 3.2 °F 12.2 °F 79% 30.09 in 10.0 mi SE 15.0 mph - N/A   Clear
4:15 PM 15.8 °F 0.3 °F 10.4 °F 79% 30.08 in 10.0 mi ESE 16.1 mph - N/A   Clear
4:35 PM 15.8 °F 0.3 °F 10.4 °F 79% 30.07 in 10.0 mi ESE 16.1 mph - N/A   Clear
4:55 PM 15.8 °F 0.9 °F 10.4 °F 79% 30.07 in 10.0 mi ESE 15.0 mph - N/A   Clear
5:15 PM 15.8 °F -0.2 °F 10.4 °F 79% 30.07 in 10.0 mi ESE 17.3 mph - N/A   Clear
5:35 PM 14.0 °F -0.8 °F 10.4 °F 86% 30.07 in 10.0 mi ESE 13.8 mph - N/A   Clear
5:55 PM 14.0 °F -0.8 °F 8.6 °F 79% 30.06 in 10.0 mi East 13.8 mph - N/A   Clear
6:15 PM 8.6 °F -7.0 °F 6.8 °F 92% 30.06 in 10.0 mi East 12.7 mph - N/A   Clear
6:35 PM 8.6 °F -7.7 °F 6.8 °F 92% 30.06 in 10.0 mi East 13.8 mph - N/A   Clear
6:55 PM 8.6 °F -8.3 °F 5.0 °F 85% 30.05 in 10.0 mi East 15.0 mph - N/A   Clear
7:15 PM 8.6 °F -8.3 °F 5.0 °F 85% 30.05 in 10.0 mi East 15.0 mph - N/A   Clear
7:35 PM 8.6 °F -8.3 °F 5.0 °F 85% 30.05 in 10.0 mi East 15.0 mph - N/A   Clear
7:55 PM 8.6 °F -8.3 °F 5.0 °F 85% 30.05 in 10.0 mi East 15.0 mph - N/A   Clear
8:35 PM 8.6 °F -5.5 °F 5.0 °F 85% 30.05 in 10.0 mi ESE 10.4 mph - N/A   Clear
8:55 PM 8.6 °F -5.5 °F 5.0 °F 85% 30.05 in 10.0 mi East 10.4 mph - N/A   Clear
9:15 PM 8.6 °F -4.7 °F 5.0 °F 85% 30.04 in 10.0 mi East 9.2 mph - N/A   Clear
9:35 PM 8.6 °F -4.7 °F 5.0 °F 85% 30.04 in 10.0 mi East 9.2 mph - N/A   Clear
9:55 PM 6.8 °F -9.3 °F 5.0 °F 92% 30.03 in 10.0 mi East 12.7 mph - N/A   Clear
10:15 PM 8.6 °F -5.5 °F 5.0 °F 85% 30.03 in 10.0 mi East 10.4 mph - N/A   Clear
10:35 PM 6.8 °F -4.8 °F 5.0 °F 92% 30.03 in 10.0 mi East 6.9 mph - N/A   Clear
10:55 PM 6.8 °F -2.0 °F 3.2 °F 85% 30.03 in 10.0 mi East 4.6 mph - N/A   Clear
11:15 PM 6.8 °F - 3.2 °F 85% 30.02 in 10.0 mi Calm Calm - N/A   Clear
11:35 PM 6.8 °F -5.9 °F 3.2 °F 85% 30.02 in 10.0 mi East 8.1 mph - N/A   Clear
11:55 PM 8.6 °F -4.7 °F 5.0 °F 85% 30.01 in 10.0 mi East 9.2 mph - N/A   Clear